User: anonymous   Login
Location: Alafon
(8.4500°N, 4.2333°E)
Time: 03:32:31
(UTC+00:00)
Language:

Transit 2A - Orbit

View from above orbital plane
View from above orbital plane
View from above satellite
View from above satellite

Ground track
Ground track

The orbit data is extracted from the following two-line orbital elements,

1 00045U 60007A   21217.67709847 -.00000090  00000-0  45367-5 0  9993
2 00045  66.6958   9.2994 0253546  12.4566 348.2643 14.33728750125214
Epoch (UTC): 05 August 2021 16:15:01
Eccentricity: 0.0253546
inclination: 66.6958°
perigee height: 598 km
apogee height: 961 km
right ascension of ascending node: 9.2994°
argument of perigee: 12.4566°
revolutions per day: 14.33728750
mean anomaly at epoch: 348.2643°
orbit number at epoch: 12521

The dashed part of the orbit path shows where the satellite is in the earth's shadow,  

DLR